Location: Blanot
(47.1713°N, 4.2340°E)
Time: 10:38:14
(UTC+00:00)

SL-16 R/B - Pass Details

Date: 14 July 2020
Orbit: 985 x 1006 km, 99.5° (Epoch: 05 August)

Event Time Altitude Azimuth Distance (km) Brightness Sun altitude
Exits shadow 00:11:55 10° 124° (SE) 2,805 4.6 -21.0°
Reaches altitude 10° 00:12:01 10° 124° (SE) 2,771 4.6 -21.0°
Maximum altitude 00:17:33 35° 61° (ENE) 1,576 3.9 -20.9°
Drops below altitude 10° 00:23:06 10° 359° (N) 2,793 6.0 -20.8°
Sets 00:25:48 0° 351° (N) 3,748 6.9 -20.7°
